Tracking 27086 objects as of 22-Mar-2023
HD Live streaming from Space Station
objects crossing your sky now

IRIDIUM 42

Track IRIDIUM 42 now!
10-day predictions
IRIDIUM 42 is classified as:


NORAD ID: 25077
Int'l Code: 1997-077A
Perigee: 781.2 km
Apogee: 783.2 km
Inclination: 86.4 °
Period: 100.3 minutes
Semi major axis: 7153 km
RCS: 3.3675 m2 (large)
Launch date: December 8, 1997
Source: United States (US)
Launch site: Taiyaun Space Center, China (TSC)
Your satellite tracking list
Your tracking list is empty




NASA's NSSDC Master Catalog

Two Line Element Set (TLE):
1 25077U 97077A   23080.81210939  .00000784  00000-0  26874-3 0  9996
2 25077  86.3991 222.1309 0001399  95.7706 264.3649 14.35001325323785
Source of the keplerian elements: AFSPC